LGS2351 EBBR-EKCH

Flight info

Callsign LGS2351
Flight time N/A
Altitude 37000
Route NIK L191 VICOT N873 SPY DCT DOSUR P729 TUDLO
Aircraft B738/M-SDE2E3FGHIRWXY/LB1

Departure

Time N/A
Airport Brussels Airport (EBBR)

Arrival

Time 2026-05-03 22:54
Airport Copenhagen Kastrup Airport (EKCH)
Time Latitude Longitude Altitude Speed Heading
2026-05-03 21:55 51.84543 4.32214 28462 ft 451 kts 23°
2026-05-03 21:55 51.87401 4.34360 28832 ft 455 kts 23°
2026-05-03 21:55 51.90248 4.36501 29204 ft 458 kts 23°
2026-05-03 21:55 51.93156 4.38691 29573 ft 461 kts 23°
2026-05-03 21:56 51.96076 4.40895 29926 ft 464 kts 23°
2026-05-03 21:56 51.99025 4.43123 30233 ft 467 kts 23°
2026-05-03 21:56 52.01974 4.45355 30568 ft 468 kts 23°
2026-05-03 21:56 52.04927 4.47593 30906 ft 469 kts 23°
2026-05-03 21:57 52.07848 4.49810 31228 ft 470 kts 23°
2026-05-03 21:57 52.10813 4.52064 31537 ft 472 kts 23°
2026-05-03 21:57 52.13791 4.54330 31834 ft 473 kts 23°
2026-05-03 21:57 52.16780 4.56609 32125 ft 475 kts 23°
2026-05-03 21:58 52.19772 4.58893 32409 ft 476 kts 23°
2026-05-03 21:58 52.22776 4.61189 32694 ft 478 kts 23°
2026-05-03 21:58 52.24773 4.62718 32882 ft 478 kts 23°
2026-05-03 21:58 52.27784 4.65035 33152 ft 480 kts 23°
2026-05-03 21:59 52.30810 4.67371 33408 ft 481 kts 23°
2026-05-03 21:59 52.33835 4.69712 33660 ft 483 kts 23°
2026-05-03 21:59 52.36871 4.72066 33938 ft 483 kts 23°
2026-05-03 21:59 52.39915 4.74428 34154 ft 484 kts 23°
2026-05-03 22:00 52.42963 4.76796 34345 ft 485 kts 23°
2026-05-03 22:00 52.46020 4.79173 34543 ft 487 kts 23°
2026-05-03 22:00 52.49081 4.81557 34737 ft 488 kts 24°
2026-05-03 22:00 52.52123 4.84061 34917 ft 490 kts 29°
2026-05-03 22:01 52.54960 4.87186 35075 ft 492 kts 38°
2026-05-03 22:01 52.57486 4.90992 35251 ft 494 kts 45°
2026-05-03 22:01 52.59858 4.95075 35432 ft 495 kts 47°
2026-05-03 22:01 52.62204 4.99215 35595 ft 496 kts 47°
2026-05-03 22:02 52.64555 5.03387 35768 ft 497 kts 47°
2026-05-03 22:02 52.66907 5.07546 36006 ft 495 kts 47°
2026-05-03 22:02 52.69257 5.11674 36266 ft 494 kts 47°
2026-05-03 22:02 52.71612 5.15788 36481 ft 493 kts 46°
2026-05-03 22:03 52.73974 5.19903 36651 ft 494 kts 46°
2026-05-03 22:03 52.76343 5.24024 36837 ft 494 kts 46°
2026-05-03 22:03 52.81086 5.32290 36924 ft 496 kts 46°
2026-05-03 22:04 52.85773 5.40487 36921 ft 493 kts 47°
2026-05-03 22:04 52.90465 5.48728 36919 ft 490 kts 47°
2026-05-03 22:05 52.95126 5.56942 36921 ft 489 kts 47°
2026-05-03 22:05 52.99776 5.65166 36928 ft 488 kts 47°
2026-05-03 22:06 53.04417 5.73401 36936 ft 488 kts 47°
2026-05-03 22:06 53.09057 5.81662 36936 ft 489 kts 47°
2026-05-03 22:07 53.13705 5.89965 36941 ft 491 kts 47°
2026-05-03 22:07 53.18361 5.98311 36935 ft 492 kts 47°
2026-05-03 22:08 53.22994 6.06645 36936 ft 494 kts 47°
2026-05-03 22:08 53.27664 6.15074 36924 ft 495 kts 47°
2026-05-03 22:09 53.32333 6.23531 36919 ft 495 kts 47°
2026-05-03 22:10 53.39326 6.36252 36917 ft 495 kts 47°
2026-05-03 22:10 53.43988 6.44768 36913 ft 495 kts 47°
2026-05-03 22:11 53.48639 6.53296 36910 ft 495 kts 47°
2026-05-03 22:11 53.53277 6.61828 36913 ft 494 kts 47°
2026-05-03 22:12 53.57908 6.70378 36913 ft 494 kts 47°
2026-05-03 22:12 53.62529 6.78940 36911 ft 494 kts 48°
2026-05-03 22:13 53.67143 6.87519 36910 ft 494 kts 48°
2026-05-03 22:13 53.71749 6.96112 36906 ft 494 kts 48°
2026-05-03 22:14 53.76347 7.04721 36918 ft 494 kts 48°
2026-05-03 22:14 53.80918 7.13310 36902 ft 494 kts 48°
2026-05-03 22:15 53.85510 7.21970 36917 ft 494 kts 48°
2026-05-03 22:15 53.90102 7.30659 36898 ft 494 kts 48°
2026-05-03 22:16 53.94684 7.39361 36903 ft 495 kts 48°
2026-05-03 22:16 53.99263 7.48089 36912 ft 495 kts 48°
2026-05-03 22:17 54.03839 7.56841 36888 ft 495 kts 48°
2026-05-03 22:17 54.08410 7.65617 36887 ft 495 kts 48°
2026-05-03 22:18 54.12977 7.74414 36887 ft 495 kts 48°
2026-05-03 22:18 54.17507 7.83175 36888 ft 495 kts 48°
2026-05-03 22:19 54.22059 7.92007 36896 ft 495 kts 48°
2026-05-03 22:19 54.26604 8.00860 36882 ft 495 kts 49°
2026-05-03 22:20 54.31141 8.09728 36870 ft 495 kts 49°
2026-05-03 22:20 54.35670 8.18613 36881 ft 495 kts 49°
2026-05-03 22:21 54.40191 8.27515 36870 ft 495 kts 49°
2026-05-03 22:21 54.44705 8.36436 36860 ft 495 kts 49°
2026-05-03 22:22 54.49209 8.45369 36871 ft 494 kts 49°
2026-05-03 22:22 54.53707 8.54324 36857 ft 494 kts 49°
2026-05-03 22:23 54.58193 8.63288 36855 ft 494 kts 49°
2026-05-03 22:23 54.62644 8.72213 36855 ft 494 kts 49°
2026-05-03 22:24 54.67117 8.81218 36849 ft 494 kts 49°
2026-05-03 22:24 54.71580 8.90234 36849 ft 494 kts 49°
2026-05-03 22:25 54.76028 8.99255 36850 ft 494 kts 49°
2026-05-03 22:25 54.80488 9.08333 36852 ft 494 kts 49°
2026-05-03 22:26 54.84929 9.17404 36853 ft 494 kts 49°
2026-05-03 22:26 54.89418 9.26423 36847 ft 493 kts 48°
2026-05-03 22:27 54.93971 9.35339 36853 ft 493 kts 48°
2026-05-03 22:27 54.98509 9.44280 36851 ft 493 kts 48°
2026-05-03 22:28 55.03026 9.53261 36855 ft 493 kts 48°
2026-05-03 22:28 55.07509 9.62205 36856 ft 493 kts 49°
2026-05-03 22:29 55.11278 9.72155 36851 ft 492 kts 65°
2026-05-03 22:29 55.12534 9.77730 36322 ft 497 kts 73°
2026-05-03 22:29 55.13559 9.83481 35755 ft 493 kts 75°
2026-05-03 22:29 55.14526 9.89235 35074 ft 494 kts 76°
2026-05-03 22:30 55.15488 9.94995 34394 ft 494 kts 76°
2026-05-03 22:30 55.16468 10.00771 33675 ft 495 kts 76°
2026-05-03 22:30 55.17463 10.06529 32854 ft 497 kts 75°
2026-05-03 22:30 55.18476 10.12317 32076 ft 497 kts 75°
2026-05-03 22:31 55.19494 10.18097 31298 ft 498 kts 75°
2026-05-03 22:31 55.20516 10.23904 30505 ft 498 kts 75°
2026-05-03 22:31 55.21534 10.29707 29651 ft 499 kts 75°
2026-05-03 22:31 55.22549 10.35525 28670 ft 500 kts 75°
2026-05-03 22:32 55.23563 10.41354 27734 ft 499 kts 75°
2026-05-03 22:32 55.24569 10.47169 26760 ft 499 kts 75°
2026-05-03 22:32 55.25576 10.53003 25749 ft 500 kts 74°
2026-05-03 22:32 55.26575 10.58809 25041 ft 495 kts 74°
2026-05-03 22:33 55.27561 10.64557 24339 ft 489 kts 74°
2026-05-03 22:33 55.28532 10.70222 23775 ft 481 kts 74°
2026-05-03 22:33 55.29487 10.75805 23040 ft 476 kts 74°
2026-05-03 22:33 55.30432 10.81335 22266 ft 471 kts 74°
2026-05-03 22:34 55.31365 10.86811 21547 ft 465 kts 74°
2026-05-03 22:34 55.32273 10.92160 20851 ft 461 kts 74°
2026-05-03 22:34 55.33181 10.97527 20153 ft 456 kts 75°
2026-05-03 22:34 55.34072 11.02851 19462 ft 452 kts 75°
2026-05-03 22:35 55.34950 11.08132 18739 ft 450 kts 75°
2026-05-03 22:35 55.35821 11.13401 18036 ft 447 kts 75°
2026-05-03 22:35 55.36685 11.18640 17247 ft 445 kts 75°
2026-05-03 22:35 55.37520 11.23708 16560 ft 441 kts 75°
2026-05-03 22:36 55.38388 11.28996 15864 ft 437 kts 75°
2026-05-03 22:36 55.39215 11.34040 15682 ft 421 kts 75°
2026-05-03 22:36 55.40011 11.38905 15491 ft 407 kts 75°
2026-05-03 22:36 55.40777 11.43608 15319 ft 394 kts 75°
2026-05-03 22:37 55.41519 11.48171 15143 ft 382 kts 76°
2026-05-03 22:37 55.42238 11.52605 14976 ft 371 kts 76°
2026-05-03 22:37 55.42933 11.56907 14818 ft 361 kts 76°
2026-05-03 22:37 55.43647 11.61084 14656 ft 352 kts 69°
2026-05-03 22:38 55.44887 11.64688 14390 ft 347 kts 46°
2026-05-03 22:38 55.46584 11.67526 14070 ft 345 kts 40°
2026-05-03 22:38 55.48389 11.70302 13702 ft 344 kts 39°
2026-05-03 22:38 55.50199 11.73053 13341 ft 342 kts 39°
2026-05-03 22:39 55.51989 11.75797 12971 ft 341 kts 40°
2026-05-03 22:39 55.53766 11.78549 12611 ft 339 kts 40°
2026-05-03 22:39 55.55528 11.81298 12257 ft 337 kts 40°
2026-05-03 22:39 55.57276 11.84041 11913 ft 335 kts 40°
2026-05-03 22:40 55.59012 11.86770 11572 ft 333 kts 40°
2026-05-03 22:40 55.60738 11.89491 11237 ft 332 kts 40°
2026-05-03 22:40 55.62456 11.92202 10903 ft 330 kts 40°
2026-05-03 22:40 55.64164 11.94900 10550 ft 329 kts 40°
2026-05-03 22:41 55.65869 11.97598 10232 ft 328 kts 40°
2026-05-03 22:41 55.67548 12.00259 10078 ft 320 kts 40°
2026-05-03 22:41 55.69188 12.02859 9922 ft 312 kts 40°
2026-05-03 22:41 55.69810 12.03847 9866 ft 309 kts 40°
2026-05-03 22:42 55.71392 12.06359 9793 ft 300 kts 40°
2026-05-03 22:42 55.72781 12.09126 9423 ft 303 kts 65°
2026-05-03 22:42 55.73382 12.12621 9115 ft 293 kts 91°
2026-05-03 22:42 55.73274 12.16165 8834 ft 285 kts 102°
2026-05-03 22:43 55.73041 12.19659 8526 ft 285 kts 102°
2026-05-03 22:43 55.72810 12.23132 8236 ft 283 kts 102°
2026-05-03 22:43 55.72588 12.26594 7958 ft 282 kts 102°
2026-05-03 22:43 55.72372 12.30030 7681 ft 280 kts 102°
2026-05-03 22:44 55.72156 12.33463 7390 ft 279 kts 102°
2026-05-03 22:44 55.71943 12.36874 7134 ft 277 kts 102°
2026-05-03 22:44 55.71730 12.40271 6857 ft 276 kts 102°
2026-05-03 22:44 55.71516 12.43652 6560 ft 276 kts 103°
2026-05-03 22:45 55.71301 12.47028 6306 ft 275 kts 103°
2026-05-03 22:45 55.71166 12.50419 5996 ft 280 kts 90°
2026-05-03 22:45 55.71746 12.53744 5750 ft 285 kts 67°
2026-05-03 22:45 55.72654 12.56867 5476 ft 284 kts 65°
2026-05-03 22:46 55.73566 12.59970 5208 ft 283 kts 66°
2026-05-03 22:46 55.74467 12.63059 4952 ft 281 kts 64°
2026-05-03 22:46 55.75660 12.65728 4871 ft 274 kts 42°
2026-05-03 22:46 55.77100 12.67921 4726 ft 272 kts 41°
2026-05-03 22:47 55.78540 12.70105 4593 ft 273 kts 41°
2026-05-03 22:47 55.79981 12.72317 4442 ft 274 kts 42°
2026-05-03 22:47 55.81397 12.74515 4292 ft 273 kts 42°
2026-05-03 22:47 55.82812 12.76722 4120 ft 268 kts 43°
2026-05-03 22:48 55.84199 12.78892 3966 ft 263 kts 44°
2026-05-03 22:48 55.85223 12.81472 3786 ft 251 kts 76°
2026-05-03 22:48 55.85376 12.84428 3650 ft 235 kts 105°
2026-05-03 22:48 55.84798 12.87051 3529 ft 225 kts 129°
2026-05-03 22:49 55.83707 12.88951 3398 ft 219 kts 152°
2026-05-03 22:49 55.82306 12.89901 3268 ft 215 kts 172°
2026-05-03 22:49 55.80826 12.89926 3129 ft 213 kts 192°
2026-05-03 22:49 55.79416 12.89154 3030 ft 213 kts 199°
2026-05-03 22:50 55.78030 12.88228 3006 ft 211 kts 200°
2026-05-03 22:50 55.76688 12.87323 2986 ft 200 kts 200°
2026-05-03 22:50 55.75428 12.86406 2980 ft 194 kts 209°
2026-05-03 22:50 55.74337 12.85011 2999 ft 195 kts 217°
2026-05-03 22:51 55.73284 12.83409 2855 ft 204 kts 219°
2026-05-03 22:51 55.72192 12.81710 2581 ft 210 kts 219°
2026-05-03 22:51 55.71091 12.80000 2328 ft 209 kts 218°
2026-05-03 22:51 55.70004 12.78318 2044 ft 205 kts 218°
2026-05-03 22:52 55.69299 12.77227 1857 ft 200 kts 218°
2026-05-03 22:52 55.68280 12.75648 1586 ft 189 kts 218°
2026-05-03 22:52 55.67324 12.74168 1338 ft 177 kts 218°
2026-05-03 22:52 55.66432 12.72787 1125 ft 162 kts 218°
2026-05-03 22:53 55.65617 12.71525 870 ft 151 kts 219°
2026-05-03 22:53 55.64834 12.70314 618 ft 148 kts 223°
2026-05-03 22:53 55.64061 12.69113 429 ft 151 kts 223°
2026-05-03 22:53 55.63282 12.67890 225 ft 149 kts 223°
2026-05-03 22:54 55.62504 12.66694 50 ft 147 kts 223°
2026-05-03 22:54 55.61760 12.65542 24 ft 136 kts 222°
2026-05-03 22:54 55.61100 12.64518 22 ft 115 kts 221°
2026-05-03 22:54 55.60697 12.63857 27 ft 23 kts 255°
2026-05-03 22:55 55.60749 12.63674 23 ft 9 kts 313°
2026-05-03 22:55 55.60798 12.63604 23 ft 9 kts 337°
2026-05-03 22:55 55.60856 12.63619 25 ft 9 kts 31°
2026-05-03 22:55 55.60907 12.63676 23 ft 8 kts 32°
2026-05-03 22:56 55.60956 12.63731 24 ft 8 kts 32°
2026-05-03 22:56 55.61003 12.63785 25 ft 8 kts 35°
2026-05-03 22:56 55.61051 12.63844 24 ft 10 kts 34°
2026-05-03 22:56 55.61136 12.63941 25 ft 19 kts 33°
2026-05-03 22:57 55.61262 12.64088 24 ft 22 kts 33°
2026-05-03 22:57 55.61388 12.64228 24 ft 21 kts 32°
2026-05-03 22:57 55.61509 12.64369 23 ft 20 kts 34°
2026-05-03 22:57 55.61625 12.64504 27 ft 20 kts 33°
2026-05-03 22:58 55.61739 12.64635 23 ft 19 kts 33°
2026-05-03 22:58 55.61849 12.64761 25 ft 19 kts 33°
2026-05-03 22:58 55.61956 12.64883 23 ft 18 kts 33°
2026-05-03 22:58 55.62060 12.65001 25 ft 17 kts 33°
2026-05-03 22:59 55.62159 12.65116 25 ft 17 kts 33°
2026-05-03 22:59 55.62262 12.65195 23 ft 16 kts
2026-05-03 22:59 55.62355 12.65152 23 ft 3 kts 300°
2026-05-03 22:59 55.62359 12.65121 26 ft 3 kts 279°
2026-05-03 23:00 55.62361 12.65089 25 ft 3 kts 277°
2026-05-03 23:00 55.62363 12.65068 24 ft 0 kts 277°